Location: Newark
(18.8198°N, 82.1672°E)
Time: 23:22:18
(UTC+00:00)

OTV 5 (USA 277) - Pass Details

Date: 22 August 2019
Orbit: 295 x 339 km, 54.5° (Epoch: 08 September)

Event Time Altitude Azimuth Distance (km) Brightness Sun altitude
Rises 14:21:44 0° 238° (WSW) 2,015 ? -20.7°
Reaches altitude 10° 14:23:59 10° 257° (WSW) 1,181 ? -21.2°
Maximum altitude 14:26:01 20° 308° (NW) 779 ? -21.6°
Enters shadow 14:27:21 14° 347° (NNW) 968 ? -21.9°
